Zurück zum Katalog

SWC-1

LostWetterHEO
NORAD 68540·PAYLOAD·🇸🇦 Saudi Arabia

Gestartet Apr 1, 2026 von Cape Canaveral Space Force Station

Loading…

Nächste Überflüge (nächste 24 Stunden)

TLE

VeraltetSource: Space-Track

Epoche: Apr 17, 2026, 12:14 UTC

1 68540U 26069C   26107.51011483 -.00000351  00000-0  00000-0 0  9995
2 68540  28.3533 357.7706 8357664  80.9928 279.0715  1.01840683   168

Verfolge SWC-1 in Echtzeit mit AllMySat

Download on the App Store